When you browse on this site, cookies collect data to enhance your experience and personalize the content and advertising you see.
Visit our Privacy Policy to learn more. By continuing to use the site, you agree to this use of cookies and data.
  • In United Kingdom
  • List of Countries
  • For 7 days
  • Water Temperature
  • Weather Map
  • Weather Widgets
  • user-avatar
    Login

    Hourly Weather Pechanivka

    Today, 17 August, Saturday

    Time Temperature Precipitation Wind Pressure Humidity
    00:00 +13°C° 0 mm 2 mps 738 mmHg 90%
    01:00 +13°C° 0 mm 2 mps 738 mmHg 91%
    02:00 +12°C° 0 mm 2 mps 738 mmHg 94%
    03:00 +12°C° 0 mm 2 mps 738 mmHg 94%
    04:00 +12°C° 0 mm 2 mps 738 mmHg 94%
    05:00 +12°C° 0 mm 2 mps 738 mmHg 95%
    06:00 +12°C° 0 mm 3 mps 738 mmHg 90%
    07:00 +14°C° 0 mm 3 mps 738 mmHg 85%
    08:00 +16°C° 0 mm 3 mps 739 mmHg 81%
    09:00 +18°C° 0 mm 3 mps 739 mmHg 75%
    10:00 +19°C° 0 mm 4 mps 739 mmHg 69%
    11:00 +21°C° 0 mm 4 mps 739 mmHg 64%
    12:00 +21°C° 0.1 mm 4 mps 739 mmHg 61%
    13:00 +22°C° 0.1 mm 5 mps 738 mmHg 59%
    14:00 +22°C° 0.1 mm 5 mps 738 mmHg 57%
    15:00 +22°C° 0.1 mm 4 mps 738 mmHg 59%
    16:00 +22°C° 0.1 mm 4 mps 738 mmHg 61%
    17:00 +22°C° 0.1 mm 3 mps 738 mmHg 64%
    18:00 +20°C° 0 mm 3 mps 738 mmHg 69%
    19:00 +18°C° 0 mm 2 mps 738 mmHg 75%
    20:00 +16°C° 0 mm 2 mps 738 mmHg 80%
    21:00 +16°C° 0 mm 2 mps 738 mmHg 82%
    22:00 +15°C° 0 mm 2 mps 738 mmHg 85%
    23:00 +14°C° 0 mm 2 mps 738 mmHg 87%

    Tomorrow, 18 August, Sunday

    Time Temperature Precipitation Wind Pressure Humidity
    00:00 +14°C° 0 mm 2 mps 738 mmHg 88%
    01:00 +14°C° 0 mm 2 mps 738 mmHg 89%
    02:00 +13°C° 0 mm 2 mps 738 mmHg 90%
    03:00 +13°C° 0 mm 2 mps 738 mmHg 90%
    04:00 +13°C° 0 mm 2 mps 738 mmHg 91%
    05:00 +12°C° 0 mm 2 mps 738 mmHg 92%
    06:00 +14°C° 0 mm 2 mps 738 mmHg 86%
    07:00 +16°C° 0 mm 2 mps 739 mmHg 80%
    08:00 +18°C° 0 mm 2 mps 739 mmHg 75%
    09:00 +19°C° 0 mm 2 mps 739 mmHg 70%
    10:00 +20°C° 0 mm 2 mps 739 mmHg 64%
    11:00 +23°C° 0 mm 2 mps 739 mmHg 59%
    12:00 +23°C° 0 mm 2 mps 739 mmHg 57%
    13:00 +24°C° 0 mm 2 mps 739 mmHg 54%
    14:00 +25°C° 0 mm 2 mps 739 mmHg 51%
    15:00 +25°C° 0 mm 1 mps 739 mmHg 53%
    16:00 +25°C° 0 mm 1 mps 739 mmHg 54%
    17:00 +25°C° 0 mm 1 mps 739 mmHg 55%
    18:00 +23°C° 0 mm 1 mps 739 mmHg 60%
    19:00 +21°C° 0 mm 1 mps 739 mmHg 66%
    20:00 +19°C° 0 mm 1 mps 740 mmHg 72%
    21:00 +19°C° 0 mm 1 mps 740 mmHg 73%
    22:00 +17°C° 0 mm 2 mps 740 mmHg 75%
    23:00 +17°C° 0 mm 2 mps 740 mmHg 76%

    Day after tomorrow, 19 August, Monday

    Time Temperature Precipitation Wind Pressure Humidity
    00:00 +16°C° 0 mm 2 mps 740 mmHg 77%
    01:00 +16°C° 0 mm 2 mps 740 mmHg 78%
    02:00 +16°C° 0 mm 2 mps 740 mmHg 79%
    03:00 +15°C° 0 mm 2 mps 740 mmHg 79%
    04:00 +15°C° 0 mm 2 mps 741 mmHg 79%
    05:00 +15°C° 0 mm 2 mps 741 mmHg 79%
    06:00 +17°C° 0 mm 3 mps 741 mmHg 76%
    07:00 +18°C° 0 mm 3 mps 741 mmHg 73%
    08:00 +20°C° 0 mm 3 mps 742 mmHg 70%
    09:00 +21°C° 0 mm 3 mps 742 mmHg 65%
    10:00 +24°C° 0 mm 3 mps 742 mmHg 60%
    11:00 +26°C° 0 mm 3 mps 742 mmHg 55%
    12:00 +27°C° 0 mm 2 mps 742 mmHg 53%
    13:00 +27°C° 0 mm 2 mps 742 mmHg 51%
    14:00 +28°C° 0 mm 2 mps 742 mmHg 49%
    15:00 +28°C° 0 mm 1 mps 742 mmHg 50%
    16:00 +28°C° 0 mm 1 mps 742 mmHg 52%
    17:00 +28°C° 0 mm 1 mps 742 mmHg 53%
    18:00 +26°C° 0 mm 1 mps 742 mmHg 57%
    19:00 +24°C° 0 mm 1 mps 742 mmHg 62%
    20:00 +22°C° 0 mm 1 mps 742 mmHg 66%
    21:00 +21°C° 0 mm 2 mps 742 mmHg 67%
    22:00 +20°C° 0 mm 2 mps 742 mmHg 68%
    23:00 +19°C° 0 mm 2 mps 742 mmHg 69%

    20 August, Tuesday

    Time Temperature Precipitation Wind Pressure Humidity
    00:00 +19°C° 0 mm 2 mps 742 mmHg 67%
    01:00 +18°C° 0 mm 2 mps 742 mmHg 65%
    02:00 +18°C° 0 mm 2 mps 742 mmHg 64%
    03:00 +18°C° 0 mm 2 mps 742 mmHg 63%
    04:00 +17°C° 0 mm 2 mps 742 mmHg 63%
    05:00 +17°C° 0 mm 2 mps 742 mmHg 63%
    06:00 +19°C° 0 mm 2 mps 743 mmHg 62%
    07:00 +20°C° 0 mm 2 mps 743 mmHg 61%
    08:00 +23°C° 0 mm 1 mps 743 mmHg 60%
    09:00 +24°C° 0 mm 2 mps 743 mmHg 56%
    10:00 +26°C° 0 mm 2 mps 743 mmHg 52%
    11:00 +27°C° 0 mm 2 mps 743 mmHg 48%
    12:00 +28°C° 0 mm 2 mps 743 mmHg 47%
    13:00 +29°C° 0 mm 2 mps 743 mmHg 46%
    14:00 +29°C° 0 mm 1 mps 743 mmHg 44%
    15:00 +29°C° 0 mm 1 mps 743 mmHg 46%
    16:00 +29°C° 0 mm 1 mps 743 mmHg 48%
    17:00 +29°C° 0 mm 1 mps 743 mmHg 49%
    18:00 +27°C° 0 mm 1 mps 743 mmHg 53%
    19:00 +25°C° 0 mm 1 mps 743 mmHg 58%
    20:00 +23°C° 0 mm 1 mps 743 mmHg 62%
    21:00 +21°C° 0 mm 2 mps 743 mmHg 63%
    22:00 +21°C° 0 mm 2 mps 743 mmHg 65%
    23:00 +20°C° 0 mm 2 mps 743 mmHg 66%

    21 August, Wednesday

    Time Temperature Precipitation Wind Pressure Humidity
    00:00 +19°C° 0 mm 2 mps 743 mmHg 66%
    01:00 +19°C° 0 mm 2 mps 743 mmHg 65%
    02:00 +18°C° 0 mm 2 mps 742 mmHg 65%
    03:00 +18°C° 0 mm 2 mps 742 mmHg 66%
    04:00 +18°C° 0 mm 2 mps 742 mmHg 68%
    05:00 +17°C° 0 mm 2 mps 742 mmHg 69%
    06:00 +19°C° 0 mm 2 mps 742 mmHg 68%
    07:00 +20°C° 0 mm 2 mps 742 mmHg 67%
    08:00 +23°C° 0 mm 2 mps 742 mmHg 66%
    09:00 +25°C° 0 mm 2 mps 742 mmHg 61%
    10:00 +26°C° 0 mm 3 mps 742 mmHg 57%
    11:00 +28°C° 0 mm 3 mps 742 mmHg 52%
    12:00 +29°C° 0 mm 3 mps 742 mmHg 49%
    13:00 +29°C° 0 mm 2 mps 741 mmHg 46%
    14:00 +30°C° 0 mm 2 mps 741 mmHg 44%
    15:00 +30°C° 0 mm 2 mps 741 mmHg 46%
    16:00 +30°C° 0 mm 1 mps 741 mmHg 49%
    17:00 +30°C° 0 mm 1 mps 741 mmHg 51%
    18:00 +27°C° 0 mm 3 mps 741 mmHg 61%
    19:00 +25°C° 0 mm 4 mps 741 mmHg 70%
    20:00 +21°C° 0 mm 6 mps 742 mmHg 79%
    21:00 +20°C° 0 mm 6 mps 742 mmHg 80%
    22:00 +17°C° 0 mm 6 mps 743 mmHg 82%
    23:00 +16°C° 0 mm 6 mps 743 mmHg 83%

    22 August, Thursday

    Time Temperature Precipitation Wind Pressure Humidity
    00:00 +15°C° 0 mm 6 mps 743 mmHg 82%
    01:00 +15°C° 0 mm 6 mps 743 mmHg 82%
    02:00 +15°C° 0 mm 6 mps 744 mmHg 81%
    03:00 +15°C° 0 mm 6 mps 744 mmHg 80%
    04:00 +15°C° 0 mm 6 mps 744 mmHg 78%
    05:00 +15°C° 0 mm 6 mps 744 mmHg 76%
    06:00 +15°C° 0 mm 6 mps 745 mmHg 77%
    07:00 +15°C° 0 mm 6 mps 745 mmHg 78%
    08:00 +15°C° 0 mm 6 mps 745 mmHg 80%
    09:00 +16°C° 0 mm 6 mps 745 mmHg 76%
    10:00 +17°C° 0 mm 6 mps 745 mmHg 72%
    11:00 +19°C° 0 mm 6 mps 746 mmHg 68%
    12:00 +20°C° 0 mm 6 mps 746 mmHg 63%
    13:00 +22°C° 0 mm 6 mps 745 mmHg 58%
    14:00 +23°C° 0 mm 6 mps 745 mmHg 54%
    15:00 +22°C° 0 mm 6 mps 745 mmHg 55%
    16:00 +22°C° 0 mm 5 mps 745 mmHg 57%
    17:00 +22°C° 0 mm 5 mps 745 mmHg 59%
    18:00 +20°C° 0 mm 4 mps 745 mmHg 63%
    19:00 +19°C° 0 mm 4 mps 745 mmHg 67%
    20:00 +17°C° 0 mm 4 mps 745 mmHg 71%
    21:00 +15°C° 0 mm 4 mps 745 mmHg 74%
    22:00 +15°C° 0 mm 4 mps 746 mmHg 77%
    23:00 +14°C° 0 mm 3 mps 746 mmHg 80%
    Show more